Time,TemperatureF,DewpointF,PressureIn,WindDirection,WindDirectionDegrees,WindSpeedMPH,WindSpeedGustMPH,Humidity,HourlyPrecipIn,Conditions,Clouds,dailyrainin,SolarRadiationWatts/m^2,SoftwareType,DateUTC
2013-07-31 00:03:00,68.2,64.2,29.94,NNE,22,0.0,0.0,87,0.00,CLR,,0.00,0.0,WeatherDisplay:10.37,2013-07-31 05:03:00,
2013-07-31 00:08:00,68.2,64.5,29.94,NNE,22,1.6,1.6,88,0.00,CLR,,0.00,0.0,WeatherDisplay:10.37,2013-07-31 05:08:00,
2013-07-31 00:13:00,68.2,64.5,29.97,NNW,338,1.1,0.0,88,0.00,CLR,,0.00,0.0,WeatherDisplay:10.37,2013-07-31 05:13:00,
2013-07-31 00:19:00,68.2,64.5,29.97,NNW,338,1.1,0.0,88,0.00,CLR,,0.00,0.0,WeatherDisplay:10.37,2013-07-31 05:19:00,
2013-07-31 00:24:00,68.2,64.5,29.97,NNW,338,1.1,0.0,88,0.00,CLR,,0.00,0.0,WeatherDisplay:10.37,2013-07-31 05:24:00,
2013-07-31 00:29:00,68.2,64.5,29.97,NNW,338,0.0,0.0,88,0.00,CLR,,0.00,0.0,WeatherDisplay:10.37,2013-07-31 05:29:00,
2013-07-31 00:34:00,68.2,64.5,29.97,NNW,338,0.0,0.0,88,0.00,CLR,,0.00,0.0,WeatherDisplay:10.37,2013-07-31 05:34:00,
2013-07-31 00:39:00,68.2,64.5,29.97,NNW,338,1.4,0.0,88,0.00,CLR,,0.00,0.0,WeatherDisplay:10.37,2013-07-31 05:39:00,
2013-07-31 00:44:00,68.2,64.5,29.94,NNW,338,0.0,0.0,88,0.00,CLR,,0.00,0.0,WeatherDisplay:10.37,2013-07-31 05:44:00,
2013-07-31 00:49:00,68.2,64.5,29.94,NNW,338,0.0,0.0,88,0.00,CLR,,0.00,0.0,WeatherDisplay:10.37,2013-07-31 05:49:00,
2013-07-31 00:54:00,68.0,64.3,29.94,NNW,338,0.0,0.0,88,0.00,CLR,,0.00,0.0,WeatherDisplay:10.37,2013-07-31 05:54:00,
2013-07-31 00:59:00,68.0,64.3,29.97,NNW,338,0.0,0.0,88,0.00,CLR,,0.00,0.0,WeatherDisplay:10.37,2013-07-31 05:59:00,
2013-07-31 01:05:00,67.8,64.5,29.97,NNW,338,0.0,0.0,89,0.00,CLR,,0.00,0.0,WeatherDisplay:10.37,2013-07-31 06:05:00,
2013-07-31 01:10:00,67.8,64.5,29.97,NNW,338,0.0,0.0,89,0.00,CLR,,0.00,0.0,WeatherDisplay:10.37,2013-07-31 06:10:00,
2013-07-31 01:15:00,67.6,64.3,29.97,NNW,338,0.0,0.0,89,0.00,CLR,,0.00,0.0,WeatherDisplay:10.37,2013-07-31 06:15:00,
2013-07-31 01:20:00,67.5,64.1,29.97,NNW,338,0.0,0.0,89,0.00,CLR,,0.00,0.0,WeatherDisplay:10.37,2013-07-31 06:20:00,
2013-07-31 01:25:00,67.3,63.9,29.97,NNW,338,0.0,0.0,89,0.00,CLR,,0.00,0.0,WeatherDisplay:10.37,2013-07-31 06:25:00,
2013-07-31 01:30:00,67.1,63.7,29.97,NNW,338,0.0,0.0,89,0.00,CLR,,0.00,0.0,WeatherDisplay:10.37,2013-07-31 06:30:00,
2013-07-31 01:35:00,66.7,63.4,29.97,NNW,338,0.0,0.0,89,0.00,CLR,,0.00,0.0,WeatherDisplay:10.37,2013-07-31 06:35:00,
2013-07-31 01:40:00,66.6,63.5,29.97,NNW,338,0.0,0.0,90,0.00,CLR,,0.00,0.0,WeatherDisplay:10.37,2013-07-31 06:40:00,
2013-07-31 01:46:00,66.4,63.4,30.00,NNW,338,0.0,0.0,90,0.00,CLR,,0.00,0.0,WeatherDisplay:10.37,2013-07-31 06:46:00,
2013-07-31 01:51:00,66.2,63.2,30.00,NNW,338,0.0,0.0,90,0.00,CLR,,0.00,0.0,WeatherDisplay:10.37,2013-07-31 06:51:00,
2013-07-31 01:56:00,66.2,63.2,30.00,NNW,338,0.0,0.0,90,0.00,CLR,,0.00,0.0,WeatherDisplay:10.37,2013-07-31 06:56:00,
2013-07-31 02:01:00,66.0,63.3,29.97,NNW,338,0.0,0.0,91,0.00,CLR,,0.00,0.0,WeatherDisplay:10.37,2013-07-31 07:01:00,
2013-07-31 02:06:00,65.7,63.0,29.97,NNW,338,0.0,0.0,91,0.00,CLR,,0.00,0.0,WeatherDisplay:10.37,2013-07-31 07:06:00,
2013-07-31 02:11:00,65.5,62.8,29.97,NNW,338,0.0,0.0,91,0.00,CLR,,0.00,0.0,WeatherDisplay:10.37,2013-07-31 07:11:00,
2013-07-31 02:17:00,65.3,62.6,29.97,NNW,338,0.0,0.0,91,0.00,CLR,,0.00,0.0,WeatherDisplay:10.37,2013-07-31 07:17:00,
2013-07-31 02:22:00,65.1,62.4,29.97,NNW,338,0.0,0.0,91,0.00,CLR,,0.00,0.0,WeatherDisplay:10.37,2013-07-31 07:22:00,
2013-07-31 02:27:00,64.9,62.6,29.97,NNW,338,0.0,0.0,92,0.00,CLR,,0.00,0.0,WeatherDisplay:10.37,2013-07-31 07:27:00,
2013-07-31 02:32:00,64.8,62.4,29.97,NNW,338,0.0,0.0,92,0.00,CLR,,0.00,0.0,WeatherDisplay:10.37,2013-07-31 07:32:00,
2013-07-31 02:37:00,64.8,62.4,29.97,NNW,338,0.0,0.0,92,0.00,CLR,,0.00,0.0,WeatherDisplay:10.37,2013-07-31 07:37:00,
2013-07-31 02:43:00,64.6,62.2,29.97,NNW,338,0.0,0.0,92,0.00,CLR,,0.00,0.0,WeatherDisplay:10.37,2013-07-31 07:43:00,
2013-07-31 02:48:00,64.6,62.2,29.97,SSW,202,1.4,1.4,92,0.00,CLR,,0.00,0.0,WeatherDisplay:10.37,2013-07-31 07:48:00,
2013-07-31 02:53:00,64.4,62.0,29.97,SSW,202,0.0,0.0,92,0.00,CLR,,0.00,0.0,WeatherDisplay:10.37,2013-07-31 07:53:00,
2013-07-31 02:58:00,64.4,62.3,29.97,SSW,202,0.0,0.0,93,0.00,CLR,,0.00,0.0,WeatherDisplay:10.37,2013-07-31 07:58:00,
2013-07-31 03:03:00,64.4,62.3,29.97,SSW,202,0.0,0.0,93,0.00,CLR,,0.00,0.0,WeatherDisplay:10.37,2013-07-31 08:03:00,
2013-07-31 03:08:00,64.4,62.3,29.97,SSW,202,0.0,0.0,93,0.00,CLR,,0.00,0.0,WeatherDisplay:10.37,2013-07-31 08:08:00,
2013-07-31 03:13:00,64.4,62.3,29.97,SSW,202,0.0,0.0,93,0.00,CLR,,0.00,0.0,WeatherDisplay:10.37,2013-07-31 08:13:00,
2013-07-31 03:19:00,64.4,62.3,29.97,SSW,202,1.1,1.1,93,0.00,CLR,,0.00,0.0,WeatherDisplay:10.37,2013-07-31 08:19:00,
2013-07-31 03:24:00,64.4,62.6,29.97,SSW,202,1.4,1.4,94,0.00,CLR,,0.00,0.0,WeatherDisplay:10.37,2013-07-31 08:24:00,
2013-07-31 03:29:00,64.4,62.6,29.94,SSW,202,0.0,0.0,94,0.00,CLR,,0.00,0.0,WeatherDisplay:10.37,2013-07-31 08:29:00,
2013-07-31 03:34:00,64.4,62.6,29.94,SSW,202,0.0,0.0,94,0.00,CLR,,0.00,0.0,WeatherDisplay:10.37,2013-07-31 08:34:00,
2013-07-31 03:39:00,64.4,62.6,29.94,SSW,202,0.0,0.0,94,0.00,CLR,,0.00,0.0,WeatherDisplay:10.37,2013-07-31 08:39:00,
2013-07-31 03:44:00,64.4,62.6,29.94,SSW,202,0.0,0.0,94,0.00,CLR,,0.00,0.0,WeatherDisplay:10.37,2013-07-31 08:44:00,
2013-07-31 03:49:00,64.4,62.6,29.94,SSW,202,1.1,0.0,94,0.00,CLR,,0.00,0.0,WeatherDisplay:10.37,2013-07-31 08:49:00,
2013-07-31 03:54:00,64.4,62.6,29.94,SSW,202,0.0,0.0,94,0.00,CLR,,0.00,0.0,WeatherDisplay:10.37,2013-07-31 08:54:00,
2013-07-31 03:59:00,64.4,62.6,29.94,SSW,202,1.6,1.6,94,0.00,CLR,,0.00,0.0,WeatherDisplay:10.37,2013-07-31 08:59:00,
2013-07-31 04:04:00,64.4,62.6,29.94,SSW,202,0.0,0.0,94,0.00,CLR,,0.00,0.0,WeatherDisplay:10.37,2013-07-31 09:04:00,
2013-07-31 04:10:00,64.6,62.8,29.94,SSW,202,0.0,0.0,94,0.00,CLR,,0.00,0.0,WeatherDisplay:10.37,2013-07-31 09:10:00,
2013-07-31 04:15:00,64.4,62.6,29.94,SSW,202,0.0,0.0,94,0.00,CLR,,0.00,0.0,WeatherDisplay:10.37,2013-07-31 09:15:00,
2013-07-31 04:20:00,64.4,62.6,29.94,SSW,202,1.1,0.0,94,0.00,CLR,,0.00,0.0,WeatherDisplay:10.37,2013-07-31 09:20:00,
2013-07-31 04:25:00,64.6,63.1,29.94,SSW,202,0.0,0.0,95,0.00,CLR,,0.00,0.0,WeatherDisplay:10.37,2013-07-31 09:25:00,
2013-07-31 04:30:00,64.6,63.1,29.94,SW,225,1.6,1.6,95,0.00,CLR,,0.00,0.0,WeatherDisplay:10.37,2013-07-31 09:30:00,
2013-07-31 04:36:00,64.6,63.1,29.94,SW,225,0.0,0.0,95,0.00,CLR,,0.00,0.0,WeatherDisplay:10.37,2013-07-31 09:36:00,
2013-07-31 04:41:00,64.8,63.3,29.94,West,270,1.4,0.0,95,0.00,CLR,,0.00,0.0,WeatherDisplay:10.37,2013-07-31 09:41:00,
2013-07-31 04:46:00,64.9,63.5,29.94,SSW,202,2.3,2.3,95,0.00,CLR,,0.00,0.0,WeatherDisplay:10.37,2013-07-31 09:46:00,
2013-07-31 04:51:00,65.1,63.7,29.94,West,270,2.3,0.0,95,0.00,CLR,,0.00,0.0,WeatherDisplay:10.37,2013-07-31 09:51:00,
2013-07-31 04:57:00,65.3,64.1,29.97,SSW,202,0.0,0.0,96,0.00,CLR,,0.00,0.0,WeatherDisplay:10.37,2013-07-31 09:57:00,
2013-07-31 05:02:00,65.3,64.1,29.97,SSE,158,1.1,0.0,96,0.00,CLR,,0.00,0.0,WeatherDisplay:10.37,2013-07-31 10:02:00,
2013-07-31 05:07:00,65.5,64.3,29.97,SSW,202,1.1,1.1,96,0.00,CLR,,0.00,0.0,WeatherDisplay:10.37,2013-07-31 10:07:00,
2013-07-31 05:12:00,65.5,64.3,29.97,NW,315,0.0,0.0,96,0.00,CLR,,0.00,0.0,WeatherDisplay:10.37,2013-07-31 10:12:00,
2013-07-31 05:17:00,65.7,64.5,29.97,SSW,202,0.0,0.0,96,0.00,CLR,,0.00,0.0,WeatherDisplay:10.37,2013-07-31 10:17:00,
2013-07-31 05:23:00,65.7,64.5,29.97,North,0,0.0,0.0,96,0.00,CLR,,0.00,0.0,WeatherDisplay:10.37,2013-07-31 10:23:00,
2013-07-31 05:28:00,65.7,64.2,29.97,West,270,2.2,0.0,95,0.00,CLR,,0.00,0.0,WeatherDisplay:10.37,2013-07-31 10:28:00,
2013-07-31 05:33:00,65.7,64.2,29.97,NW,315,1.1,0.0,95,0.00,CLR,,0.00,0.0,WeatherDisplay:10.37,2013-07-31 10:33:00,
2013-07-31 05:38:00,65.7,64.2,29.97,NNW,338,1.1,0.0,95,0.00,CLR,,0.00,0.0,WeatherDisplay:10.37,2013-07-31 10:38:00,
2013-07-31 05:43:00,65.7,64.2,29.97,NNW,338,0.0,0.0,95,0.00,CLR,,0.00,0.0,WeatherDisplay:10.37,2013-07-31 10:43:00,
2013-07-31 05:49:00,65.7,64.2,29.97,NNW,338,0.0,0.0,95,0.00,CLR,,0.00,0.0,WeatherDisplay:10.37,2013-07-31 10:49:00,
2013-07-31 05:54:00,65.7,64.2,29.97,NNW,338,0.0,0.0,95,0.00,CLR,,0.00,0.0,WeatherDisplay:10.37,2013-07-31 10:54:00,
2013-07-31 05:59:00,65.5,64.0,29.97,NNW,338,0.0,0.0,95,0.00,CLR,,0.00,0.0,WeatherDisplay:10.37,2013-07-31 10:59:00,
2013-07-31 06:04:00,65.5,64.0,29.97,NNW,338,0.0,0.0,95,0.00,CLR,,0.00,0.0,WeatherDisplay:10.37,2013-07-31 11:04:00,
2013-07-31 06:09:00,65.3,63.8,29.97,NNW,338,0.0,0.0,95,0.00,CLR,,0.00,0.0,WeatherDisplay:10.37,2013-07-31 11:09:00,
2013-07-31 06:14:00,65.1,63.7,29.97,NNW,338,0.0,0.0,95,0.00,CLR,,0.00,0.0,WeatherDisplay:10.37,2013-07-31 11:14:00,
2013-07-31 06:19:00,65.1,63.3,29.97,NNW,338,0.0,0.0,94,0.00,CLR,,0.00,0.0,WeatherDisplay:10.37,2013-07-31 11:19:00,
2013-07-31 06:25:00,64.9,63.5,29.97,NNW,338,0.0,0.0,95,0.00,CLR,,0.00,0.0,WeatherDisplay:10.37,2013-07-31 11:25:00,
2013-07-31 06:30:00,64.9,63.5,29.97,NNW,338,0.0,0.0,95,0.00,CLR,,0.00,0.0,WeatherDisplay:10.37,2013-07-31 11:30:00,
2013-07-31 06:35:00,64.9,63.5,29.97,SSW,202,1.1,1.1,95,0.00,CLR,,0.00,0.0,WeatherDisplay:10.37,2013-07-31 11:35:00,
2013-07-31 06:41:00,64.9,63.5,29.97,SSW,202,0.0,0.0,95,0.00,CLR,,0.00,0.0,WeatherDisplay:10.37,2013-07-31 11:41:00,
2013-07-31 06:46:00,64.9,63.5,29.97,SSW,202,0.0,0.0,95,0.00,CLR,,0.00,0.0,WeatherDisplay:10.37,2013-07-31 11:46:00,
2013-07-31 06:51:00,64.9,63.5,29.97,SSW,202,0.0,0.0,95,0.00,CLR,,0.00,0.0,WeatherDisplay:10.37,2013-07-31 11:51:00,
2013-07-31 06:57:00,65.1,63.7,29.97,SSW,202,0.0,0.0,95,0.00,CLR,,0.00,0.0,WeatherDisplay:10.37,2013-07-31 11:57:00,
2013-07-31 07:02:00,65.1,63.7,29.97,North,0,0.0,0.0,95,0.00,CLR,,0.00,0.0,WeatherDisplay:10.37,2013-07-31 12:02:00,
2013-07-31 07:07:00,65.3,63.8,29.97,North,0,0.0,0.0,95,0.00,CLR,,0.00,0.0,WeatherDisplay:10.37,2013-07-31 12:07:00,
2013-07-31 07:12:00,65.5,64.0,29.97,NE,45,2.2,0.0,95,0.00,CLR,,0.00,0.0,WeatherDisplay:10.37,2013-07-31 12:12:00,
2013-07-31 07:17:00,65.7,64.2,29.97,NNW,338,2.3,2.3,95,0.00,CLR,,0.00,0.0,WeatherDisplay:10.37,2013-07-31 12:17:00,
2013-07-31 07:22:00,65.7,64.2,29.97,NNW,338,2.3,2.3,95,0.00,CLR,,0.00,0.0,WeatherDisplay:10.37,2013-07-31 12:22:00,
2013-07-31 07:27:00,65.8,64.4,29.97,North,0,2.3,2.3,95,0.00,CLR,,0.00,0.0,WeatherDisplay:10.37,2013-07-31 12:27:00,
2013-07-31 07:33:00,65.8,64.4,29.97,West,270,2.3,2.3,95,0.00,CLR,,0.00,0.0,WeatherDisplay:10.37,2013-07-31 12:33:00,
2013-07-31 07:38:00,65.8,64.1,29.97,West,270,1.1,1.1,94,0.00,CLR,,0.00,0.0,WeatherDisplay:10.37,2013-07-31 12:38:00,
2013-07-31 07:43:00,66.0,64.2,29.97,North,0,2.3,2.3,94,0.00,CLR,,0.00,0.0,WeatherDisplay:10.37,2013-07-31 12:43:00,
2013-07-31 07:49:00,66.2,64.4,29.97,North,0,2.3,2.3,94,0.00,CLR,,0.00,0.0,WeatherDisplay:10.37,2013-07-31 12:49:00,
2013-07-31 07:54:00,66.4,64.6,29.97,NW,315,2.3,2.3,94,0.00,CLR,,0.00,0.0,WeatherDisplay:10.37,2013-07-31 12:54:00,
2013-07-31 07:59:00,66.6,64.5,29.97,NW,315,2.3,2.3,93,0.00,CLR,,0.00,0.0,WeatherDisplay:10.37,2013-07-31 12:59:00,
2013-07-31 08:04:00,66.6,64.5,29.97,North,0,1.1,1.4,93,0.00,CLR,,0.00,0.0,WeatherDisplay:10.37,2013-07-31 13:04:00,
2013-07-31 08:09:00,66.4,64.3,29.97,SSW,202,2.3,2.3,93,0.00,CLR,,0.00,0.0,WeatherDisplay:10.37,2013-07-31 13:09:00,
2013-07-31 08:15:00,66.6,64.5,30.00,NW,315,2.3,0.0,93,0.00,CLR,,0.00,0.0,WeatherDisplay:10.37,2013-07-31 13:15:00,
2013-07-31 08:20:00,66.7,64.7,30.00,West,270,2.3,2.3,93,0.00,CLR,,0.00,0.0,WeatherDisplay:10.37,2013-07-31 13:20:00,
2013-07-31 08:25:00,66.7,64.7,30.00,WNW,292,2.3,2.3,93,0.00,CLR,,0.00,0.0,WeatherDisplay:10.37,2013-07-31 13:25:00,
2013-07-31 08:30:00,66.7,64.7,29.97,NNE,22,2.3,2.3,93,0.00,CLR,,0.00,0.0,WeatherDisplay:10.37,2013-07-31 13:30:00,
2013-07-31 08:36:00,66.7,64.3,29.97,NW,315,1.1,1.1,92,0.00,CLR,,0.00,0.0,WeatherDisplay:10.37,2013-07-31 13:36:00,
2013-07-31 08:41:00,66.9,64.5,29.97,NNE,22,3.5,3.5,92,0.00,CLR,,0.00,0.0,WeatherDisplay:10.37,2013-07-31 13:41:00,
2013-07-31 08:46:00,67.1,64.7,29.97,NNW,338,2.3,2.3,92,0.00,CLR,,0.00,0.0,WeatherDisplay:10.37,2013-07-31 13:46:00,
2013-07-31 08:51:00,67.3,64.9,29.97,NNE,22,1.1,0.0,92,0.00,CLR,,0.00,0.0,WeatherDisplay:10.37,2013-07-31 13:51:00,
2013-07-31 08:56:00,67.3,64.9,29.97,NE,45,1.4,1.4,92,0.00,CLR,,0.00,0.0,WeatherDisplay:10.37,2013-07-31 13:56:00,
2013-07-31 09:01:00,67.5,65.1,29.97,North,0,1.4,1.4,92,0.00,CLR,,0.00,0.0,WeatherDisplay:10.37,2013-07-31 14:01:00,
2013-07-31 09:06:00,67.8,65.4,29.97,SW,225,2.4,2.4,92,0.00,CLR,,0.00,0.0,WeatherDisplay:10.37,2013-07-31 14:06:00,
2013-07-31 09:11:00,68.2,65.5,29.97,NNW,338,1.4,0.0,91,0.00,CLR,,0.00,0.0,WeatherDisplay:10.37,2013-07-31 14:11:00,
2013-07-31 09:17:00,68.4,65.6,29.97,SSW,202,4.6,4.6,91,0.00,CLR,,0.00,0.0,WeatherDisplay:10.37,2013-07-31 14:17:00,
2013-07-31 09:22:00,68.4,65.3,29.97,West,270,5.8,5.8,90,0.00,CLR,,0.00,0.0,WeatherDisplay:10.37,2013-07-31 14:22:00,
2013-07-31 09:27:00,68.7,65.7,29.97,ENE,68,2.3,2.3,90,0.00,CLR,,0.00,0.0,WeatherDisplay:10.37,2013-07-31 14:27:00,
2013-07-31 09:32:00,68.9,65.8,29.97,WSW,248,2.2,2.2,90,0.00,CLR,,0.00,0.0,WeatherDisplay:10.37,2013-07-31 14:32:00,
2013-07-31 09:37:00,69.1,65.7,29.97,SSW,202,2.3,2.3,89,0.00,CLR,,0.00,0.0,WeatherDisplay:10.37,2013-07-31 14:37:00,
2013-07-31 09:42:00,69.3,65.9,29.97,WNW,292,1.1,0.0,89,0.00,CLR,,0.00,0.0,WeatherDisplay:10.37,2013-07-31 14:42:00,
2013-07-31 09:47:00,69.8,66.1,29.97,ENE,68,2.3,2.3,88,0.00,CLR,,0.00,0.0,WeatherDisplay:10.37,2013-07-31 14:47:00,
2013-07-31 09:53:00,70.2,66.1,29.97,NNE,22,4.6,4.6,87,0.00,CLR,,0.00,0.0,WeatherDisplay:10.37,2013-07-31 14:53:00,
2013-07-31 09:58:00,70.5,66.5,29.97,SW,225,4.6,4.6,87,0.00,CLR,,0.00,0.0,WeatherDisplay:10.37,2013-07-31 14:58:00,
2013-07-31 10:03:00,70.9,66.5,29.97,WSW,248,3.6,4.0,86,0.00,CLR,,0.00,100.0,WeatherDisplay:10.37,2013-07-31 15:03:00,
2013-07-31 10:08:00,71.2,66.8,29.97,SW,225,3.6,3.6,86,0.00,CLR,,0.00,100.0,WeatherDisplay:10.37,2013-07-31 15:08:00,
2013-07-31 10:13:00,71.8,67.0,29.97,WSW,248,2.4,2.4,85,0.00,CLR,,0.00,100.0,WeatherDisplay:10.37,2013-07-31 15:13:00,
2013-07-31 10:18:00,72.5,67.0,29.97,SW,225,5.9,5.9,83,0.00,CLR,,0.00,0.0,WeatherDisplay:10.37,2013-07-31 15:18:00,
2013-07-31 10:24:00,72.3,66.5,29.97,SSW,202,3.5,3.5,82,0.00,CLR,,0.00,0.0,WeatherDisplay:10.37,2013-07-31 15:24:00,
2013-07-31 10:29:00,72.5,66.7,29.94,SSW,202,2.3,2.3,82,0.00,CLR,,0.00,100.0,WeatherDisplay:10.37,2013-07-31 15:29:00,
2013-07-31 10:34:00,73.2,67.0,29.94,WNW,292,4.6,4.6,81,0.00,CLR,,0.00,200.0,WeatherDisplay:10.37,2013-07-31 15:34:00,
2013-07-31 10:40:00,73.9,67.7,29.94,SW,225,5.8,5.8,81,0.00,CLR,,0.00,200.0,WeatherDisplay:10.37,2013-07-31 15:40:00,
2013-07-31 10:45:00,74.5,67.5,29.94,SW,225,4.6,4.6,79,0.00,CLR,,0.00,100.0,WeatherDisplay:10.37,2013-07-31 15:45:00,
2013-07-31 10:50:00,75.0,68.1,29.94,SE,135,3.5,3.5,79,0.00,CLR,,0.00,300.0,WeatherDisplay:10.37,2013-07-31 15:50:00,
2013-07-31 10:55:00,75.4,67.7,29.94,NNW,338,2.3,2.3,77,0.00,CLR,,0.00,0.0,WeatherDisplay:10.37,2013-07-31 15:55:00,
2013-07-31 11:00:00,75.2,67.5,29.94,East,90,1.4,1.4,77,0.00,CLR,,0.00,0.0,WeatherDisplay:10.37,2013-07-31 16:00:00,
2013-07-31 11:05:00,75.0,67.3,29.94,SSW,202,2.3,2.3,77,0.00,CLR,,0.00,0.0,WeatherDisplay:10.37,2013-07-31 16:05:00,
2013-07-31 11:10:00,75.0,67.3,29.94,SW,225,1.1,1.1,77,0.00,CLR,,0.00,0.0,WeatherDisplay:10.37,2013-07-31 16:10:00,
2013-07-31 11:16:00,75.2,67.1,29.94,East,90,2.3,2.3,76,0.00,CLR,,0.00,100.0,WeatherDisplay:10.37,2013-07-31 16:16:00,
2013-07-31 11:21:00,75.2,67.1,29.94,SW,225,4.6,4.6,76,0.00,CLR,,0.00,100.0,WeatherDisplay:10.37,2013-07-31 16:21:00,
2013-07-31 11:26:00,75.2,67.1,29.94,SSW,202,2.4,2.4,76,0.00,CLR,,0.00,0.0,WeatherDisplay:10.37,2013-07-31 16:26:00,
2013-07-31 11:31:00,75.0,66.9,29.94,WSW,248,4.6,4.6,76,0.00,CLR,,0.00,0.0,WeatherDisplay:10.37,2013-07-31 16:31:00,
2013-07-31 11:36:00,75.0,66.9,29.94,WSW,248,2.3,2.3,76,0.00,CLR,,0.00,0.0,WeatherDisplay:10.37,2013-07-31 16:36:00,
2013-07-31 11:41:00,75.0,66.9,29.94,WSW,248,3.5,3.5,76,0.00,CLR,,0.00,100.0,WeatherDisplay:10.37,2013-07-31 16:41:00,
2013-07-31 11:47:00,75.2,67.1,29.94,SSW,202,4.6,4.6,76,0.00,CLR,,0.00,0.0,WeatherDisplay:10.37,2013-07-31 16:47:00,
2013-07-31 11:52:00,75.2,67.1,29.94,WSW,248,4.6,4.6,76,0.00,CLR,,0.00,0.0,WeatherDisplay:10.37,2013-07-31 16:52:00,
2013-07-31 11:57:00,75.0,66.9,29.94,SSE,158,2.3,2.3,76,0.00,CLR,,0.00,0.0,WeatherDisplay:10.37,2013-07-31 16:57:00,
2013-07-31 12:02:00,74.8,66.8,29.94,SSW,202,4.6,4.6,76,0.00,CLR,,0.00,0.0,WeatherDisplay:10.37,2013-07-31 17:02:00,
2013-07-31 12:07:00,74.8,67.1,29.94,SSE,158,2.4,2.4,77,0.00,CLR,,0.00,0.0,WeatherDisplay:10.37,2013-07-31 17:07:00,
2013-07-31 12:12:00,74.8,66.8,29.94,WSW,248,4.6,4.6,76,0.00,CLR,,0.00,0.0,WeatherDisplay:10.37,2013-07-31 17:12:00,
2013-07-31 12:17:00,74.8,66.8,29.94,SW,225,2.6,2.6,76,0.00,CLR,,0.00,0.0,WeatherDisplay:10.37,2013-07-31 17:17:00,
2013-07-31 12:23:00,74.7,66.6,29.94,WSW,248,3.5,3.5,76,0.00,CLR,,0.00,0.0,WeatherDisplay:10.37,2013-07-31 17:23:00,
2013-07-31 12:28:00,74.3,66.2,29.94,WSW,248,3.6,3.6,76,0.00,CLR,,0.00,0.0,WeatherDisplay:10.37,2013-07-31 17:28:00,
2013-07-31 12:33:00,74.1,66.4,29.94,WNW,292,2.3,2.3,77,0.00,CLR,,0.00,0.0,WeatherDisplay:10.37,2013-07-31 17:33:00,
2013-07-31 12:38:00,74.1,66.4,29.94,SE,135,3.6,3.6,77,0.00,CLR,,0.00,0.0,WeatherDisplay:10.37,2013-07-31 17:38:00,
2013-07-31 12:43:00,73.9,65.9,29.94,NNE,22,2.6,2.6,76,0.00,CLR,,0.00,0.0,WeatherDisplay:10.37,2013-07-31 17:43:00,
2013-07-31 12:48:00,73.9,65.9,29.94,NW,315,2.3,2.3,76,0.00,CLR,,0.00,0.0,WeatherDisplay:10.37,2013-07-31 17:48:00,
2013-07-31 12:53:00,73.9,66.3,29.94,SW,225,3.5,3.5,77,0.00,CLR,,0.00,0.0,WeatherDisplay:10.37,2013-07-31 17:53:00,
2013-07-31 12:58:00,73.8,66.1,29.91,SSW,202,2.4,2.4,77,0.00,CLR,,0.00,0.0,WeatherDisplay:10.37,2013-07-31 17:58:00,
2013-07-31 13:04:00,73.9,66.3,29.91,SW,225,2.6,2.6,77,0.00,CLR,,0.00,0.0,WeatherDisplay:10.37,2013-07-31 18:04:00,
2013-07-31 13:09:00,74.1,66.4,29.91,NNE,22,2.3,2.3,77,0.00,CLR,,0.00,0.0,WeatherDisplay:10.37,2013-07-31 18:09:00,
2013-07-31 13:14:00,74.3,66.6,29.91,SW,225,4.6,4.6,77,0.00,CLR,,0.00,0.0,WeatherDisplay:10.37,2013-07-31 18:14:00,
2013-07-31 13:20:00,74.3,66.6,29.91,SW,225,4.6,4.6,77,0.00,CLR,,0.00,0.0,WeatherDisplay:10.37,2013-07-31 18:20:00,
2013-07-31 13:25:00,74.3,66.6,29.91,SW,225,1.6,1.6,77,0.00,CLR,,0.00,0.0,WeatherDisplay:10.37,2013-07-31 18:25:00,
2013-07-31 13:30:00,74.3,66.6,29.91,WSW,248,6.9,6.9,77,0.00,CLR,,0.00,0.0,WeatherDisplay:10.37,2013-07-31 18:30:00,
2013-07-31 13:35:00,74.5,66.8,29.91,SSW,202,4.6,4.6,77,0.00,CLR,,0.00,0.0,WeatherDisplay:10.37,2013-07-31 18:35:00,
2013-07-31 13:40:00,74.7,67.0,29.91,SSW,202,3.5,3.5,77,0.00,CLR,,0.00,0.0,WeatherDisplay:10.37,2013-07-31 18:40:00,
2013-07-31 13:45:00,74.5,66.4,29.91,SW,225,3.5,3.5,76,0.00,CLR,,0.00,0.0,WeatherDisplay:10.37,2013-07-31 18:45:00,
2013-07-31 13:50:00,74.1,65.3,29.91,SE,135,2.6,2.6,74,0.00,CLR,,0.00,0.0,WeatherDisplay:10.37,2013-07-31 18:50:00,
2013-07-31 13:56:00,74.1,65.3,29.91,NW,315,3.5,3.5,74,0.00,CLR,,0.00,0.0,WeatherDisplay:10.37,2013-07-31 18:56:00,
2013-07-31 14:01:00,73.9,65.1,29.91,SSW,202,4.6,4.6,74,0.00,CLR,,0.00,0.0,WeatherDisplay:10.37,2013-07-31 19:01:00,
2013-07-31 14:06:00,73.9,65.1,29.91,SSW,202,4.6,4.6,74,0.00,CLR,,0.00,0.0,WeatherDisplay:10.37,2013-07-31 19:06:00,
2013-07-31 14:11:00,74.1,65.3,29.91,SSW,202,4.6,4.6,74,0.00,CLR,,0.00,0.0,WeatherDisplay:10.37,2013-07-31 19:11:00,
2013-07-31 14:17:00,74.1,64.5,29.91,SE,135,2.9,2.9,72,0.00,CLR,,0.00,0.0,WeatherDisplay:10.37,2013-07-31 19:17:00,
2013-07-31 14:22:00,74.5,65.3,29.91,East,90,3.5,3.5,73,0.00,CLR,,0.00,0.0,WeatherDisplay:10.37,2013-07-31 19:22:00,
2013-07-31 14:27:00,74.8,65.6,29.88,SW,225,3.5,3.5,73,0.00,CLR,,0.00,100.0,WeatherDisplay:10.37,2013-07-31 19:27:00,
2013-07-31 14:32:00,75.0,65.8,29.88,South,180,9.2,9.2,73,0.00,CLR,,0.00,300.0,WeatherDisplay:10.37,2013-07-31 19:32:00,
2013-07-31 14:37:00,75.4,65.7,29.88,WSW,248,3.5,3.5,72,0.00,CLR,,0.00,0.0,WeatherDisplay:10.37,2013-07-31 19:37:00,
2013-07-31 14:42:00,75.4,65.7,29.91,SW,225,6.9,6.9,72,0.00,CLR,,0.00,0.0,WeatherDisplay:10.37,2013-07-31 19:42:00,
2013-07-31 14:48:00,76.1,66.4,29.91,SW,225,4.6,4.6,72,0.00,CLR,,0.00,400.0,WeatherDisplay:10.37,2013-07-31 19:48:00,
2013-07-31 14:53:00,76.6,66.5,29.91,NW,315,2.3,2.3,71,0.00,CLR,,0.00,400.0,WeatherDisplay:10.37,2013-07-31 19:53:00,
2013-07-31 14:58:00,77.0,66.0,29.88,SW,225,10.4,10.4,69,0.00,CLR,,0.00,100.0,WeatherDisplay:10.37,2013-07-31 19:58:00,
2013-07-31 15:03:00,77.4,66.0,29.88,SW,225,7.6,7.6,68,0.00,CLR,,0.00,400.0,WeatherDisplay:10.37,2013-07-31 20:03:00,
2013-07-31 15:08:00,77.7,65.9,29.88,North,0,5.8,5.8,67,0.00,CLR,,0.00,400.0,WeatherDisplay:10.37,2013-07-31 20:08:00,
2013-07-31 15:14:00,78.1,64.9,29.91,WSW,248,5.8,5.8,64,0.00,CLR,,0.00,100.0,WeatherDisplay:10.37,2013-07-31 20:14:00,
2013-07-31 15:19:00,77.7,62.7,29.91,West,270,4.6,4.6,60,0.00,CLR,,0.00,0.0,WeatherDisplay:10.37,2013-07-31 20:19:00,
2013-07-31 15:24:00,77.5,62.1,29.91,SW,225,2.3,2.3,59,0.00,CLR,,0.00,0.0,WeatherDisplay:10.37,2013-07-31 20:24:00,
2013-07-31 15:29:00,77.7,61.8,29.91,NNW,338,3.5,3.5,58,0.00,CLR,,0.00,400.0,WeatherDisplay:10.37,2013-07-31 20:29:00,
2013-07-31 15:35:00,77.9,62.4,29.91,WNW,292,4.6,4.6,59,0.00,CLR,,0.00,300.0,WeatherDisplay:10.37,2013-07-31 20:35:00,
2013-07-31 15:40:00,78.3,61.3,29.91,South,180,4.9,4.9,56,0.00,CLR,,0.00,300.0,WeatherDisplay:10.37,2013-07-31 20:40:00,
2013-07-31 15:45:00,78.6,61.6,29.91,WNW,292,5.8,5.8,56,0.00,CLR,,0.00,300.0,WeatherDisplay:10.37,2013-07-31 20:45:00,
2013-07-31 15:50:00,79.0,60.9,29.91,SW,225,6.9,6.9,54,0.00,CLR,,0.00,300.0,WeatherDisplay:10.37,2013-07-31 20:50:00,
2013-07-31 15:56:00,79.2,60.0,29.91,WNW,292,3.5,3.5,52,0.00,CLR,,0.00,300.0,WeatherDisplay:10.37,2013-07-31 20:56:00,
2013-07-31 16:01:00,79.5,60.9,29.91,West,270,6.9,6.9,53,0.00,CLR,,0.00,300.0,WeatherDisplay:10.37,2013-07-31 21:01:00,
2013-07-31 16:06:00,79.7,60.5,29.91,SW,225,6.9,6.9,52,0.00,CLR,,0.00,0.0,WeatherDisplay:10.37,2013-07-31 21:06:00,
2013-07-31 16:11:00,79.5,59.8,29.91,WSW,248,5.9,5.9,51,0.00,CLR,,0.00,0.0,WeatherDisplay:10.37,2013-07-31 21:11:00,
2013-07-31 16:17:00,79.7,60.0,29.91,SW,225,4.6,4.6,51,0.00,CLR,,0.00,300.0,WeatherDisplay:10.37,2013-07-31 21:17:00,
2013-07-31 16:22:00,79.9,59.0,29.91,WSW,248,8.1,8.1,49,0.00,CLR,,0.00,200.0,WeatherDisplay:10.37,2013-07-31 21:22:00,
2013-07-31 16:27:00,79.9,57.8,29.88,West,270,10.4,10.4,47,0.00,CLR,,0.00,200.0,WeatherDisplay:10.37,2013-07-31 21:27:00,
2013-07-31 16:33:00,79.9,57.3,29.88,West,270,5.8,5.8,46,0.00,CLR,,0.00,200.0,WeatherDisplay:10.37,2013-07-31 21:33:00,
2013-07-31 16:38:00,79.9,57.3,29.88,WSW,248,5.8,5.8,46,0.00,CLR,,0.00,0.0,WeatherDisplay:10.37,2013-07-31 21:38:00,
2013-07-31 16:43:00,79.7,57.1,29.91,West,270,3.5,3.5,46,0.00,CLR,,0.00,0.0,WeatherDisplay:10.37,2013-07-31 21:43:00,
2013-07-31 16:48:00,79.7,56.5,29.91,WSW,248,9.2,9.2,45,0.00,CLR,,0.00,0.0,WeatherDisplay:10.37,2013-07-31 21:48:00,
2013-07-31 16:53:00,79.5,56.3,29.91,NNW,338,3.8,3.8,45,0.00,CLR,,0.00,100.0,WeatherDisplay:10.37,2013-07-31 21:53:00,
2013-07-31 16:58:00,79.5,56.3,29.88,SW,225,5.4,5.4,45,0.00,CLR,,0.00,0.0,WeatherDisplay:10.37,2013-07-31 21:58:00,
2013-07-31 17:03:00,79.5,56.3,29.88,SSE,158,3.6,3.6,45,0.00,CLR,,0.00,0.0,WeatherDisplay:10.37,2013-07-31 22:03:00,
2013-07-31 17:08:00,79.5,56.3,29.88,South,180,10.4,10.4,45,0.00,CLR,,0.00,0.0,WeatherDisplay:10.37,2013-07-31 22:08:00,
2013-07-31 17:13:00,79.7,57.1,29.88,SW,225,3.5,3.5,46,0.00,CLR,,0.00,0.0,WeatherDisplay:10.37,2013-07-31 22:13:00,
2013-07-31 17:19:00,79.9,57.3,29.88,SSW,202,3.5,3.5,46,0.00,CLR,,0.00,0.0,WeatherDisplay:10.37,2013-07-31 22:19:00,
2013-07-31 17:24:00,79.9,56.6,29.88,SSW,202,9.2,9.2,45,0.00,CLR,,0.00,0.0,WeatherDisplay:10.37,2013-07-31 22:24:00,
2013-07-31 17:29:00,79.9,56.6,29.88,NNW,338,3.5,3.5,45,0.00,CLR,,0.00,0.0,WeatherDisplay:10.37,2013-07-31 22:29:00,
2013-07-31 17:34:00,79.7,55.9,29.88,NNW,338,4.6,4.6,44,0.00,CLR,,0.00,0.0,WeatherDisplay:10.37,2013-07-31 22:34:00,
2013-07-31 17:39:00,79.5,55.7,29.88,WSW,248,5.8,5.8,44,0.00,CLR,,0.00,0.0,WeatherDisplay:10.37,2013-07-31 22:39:00,
2013-07-31 17:45:00,79.0,55.2,29.88,WNW,292,3.5,3.5,44,0.00,CLR,,0.00,0.0,WeatherDisplay:10.37,2013-07-31 22:45:00,
2013-07-31 17:50:00,78.6,55.5,29.88,NW,315,3.5,3.5,45,0.00,CLR,,0.00,0.0,WeatherDisplay:10.37,2013-07-31 22:50:00,
2013-07-31 17:55:00,78.4,55.3,29.88,WSW,248,4.6,4.6,45,0.00,CLR,,0.00,0.0,WeatherDisplay:10.37,2013-07-31 22:55:00,
2013-07-31 18:00:00,78.4,55.3,29.88,WSW,248,4.6,4.6,45,0.00,CLR,,0.00,0.0,WeatherDisplay:10.37,2013-07-31 23:00:00,
2013-07-31 18:05:00,78.3,55.8,29.88,SSW,202,3.6,3.6,46,0.00,CLR,,0.00,0.0,WeatherDisplay:10.37,2013-07-31 23:05:00,
2013-07-31 18:11:00,78.3,55.8,29.88,SSW,202,2.3,2.3,46,0.00,CLR,,0.00,0.0,WeatherDisplay:10.37,2013-07-31 23:11:00,
2013-07-31 18:16:00,78.1,55.6,29.88,WNW,292,3.5,3.5,46,0.00,CLR,,0.00,0.0,WeatherDisplay:10.37,2013-07-31 23:16:00,
2013-07-31 18:21:00,77.7,55.3,29.88,North,0,4.6,4.6,46,0.00,CLR,,0.00,0.0,WeatherDisplay:10.37,2013-07-31 23:21:00,
2013-07-31 18:26:00,77.4,55.0,29.88,South,180,3.8,3.8,46,0.00,CLR,,0.00,0.0,WeatherDisplay:10.37,2013-07-31 23:26:00,
2013-07-31 18:32:00,77.0,54.6,29.88,SSW,202,4.6,4.6,46,0.00,CLR,,0.00,0.0,WeatherDisplay:10.37,2013-07-31 23:32:00,
2013-07-31 18:37:00,76.8,55.6,29.88,WSW,248,3.5,3.5,48,0.00,CLR,,0.00,0.0,WeatherDisplay:10.37,2013-07-31 23:37:00,
2013-07-31 18:42:00,76.6,55.5,29.88,West,270,3.5,3.5,48,0.00,CLR,,0.00,0.0,WeatherDisplay:10.37,2013-07-31 23:42:00,
2013-07-31 18:47:00,76.5,55.9,29.88,SE,135,2.6,2.6,49,0.00,CLR,,0.00,0.0,WeatherDisplay:10.37,2013-07-31 23:47:00,
2013-07-31 18:52:00,76.1,55.5,29.88,SW,225,3.5,3.5,49,0.00,CLR,,0.00,0.0,WeatherDisplay:10.37,2013-07-31 23:52:00,
2013-07-31 18:57:00,76.1,55.5,29.88,WSW,248,4.6,4.6,49,0.00,CLR,,0.00,0.0,WeatherDisplay:10.37,2013-07-31 23:57:00,
2013-07-31 19:02:00,75.9,55.4,29.88,West,270,2.9,2.9,49,0.00,CLR,,0.00,0.0,WeatherDisplay:10.37,2013-08-01 00:02:00,
2013-07-31 19:07:00,75.7,55.2,29.88,North,0,4.0,4.0,49,0.00,CLR,,0.00,0.0,WeatherDisplay:10.37,2013-08-01 00:07:00,
2013-07-31 19:13:00,75.6,55.1,29.88,East,90,2.9,2.9,49,0.00,CLR,,0.00,0.0,WeatherDisplay:10.37,2013-08-01 00:13:00,
2013-07-31 19:18:00,75.4,54.9,29.88,West,270,3.5,3.5,49,0.00,CLR,,0.00,0.0,WeatherDisplay:10.37,2013-08-01 00:18:00,
2013-07-31 19:23:00,75.0,55.1,29.88,WNW,292,3.5,3.5,50,0.00,CLR,,0.00,0.0,WeatherDisplay:10.37,2013-08-01 00:23:00,
2013-07-31 19:28:00,75.0,55.7,29.88,WNW,292,2.4,2.4,51,0.00,CLR,,0.00,0.0,WeatherDisplay:10.37,2013-08-01 00:28:00,
2013-07-31 19:33:00,74.8,55.5,29.88,ENE,68,2.4,2.4,51,0.00,CLR,,0.00,0.0,WeatherDisplay:10.37,2013-08-01 00:33:00,
2013-07-31 19:38:00,74.5,55.2,29.88,NNW,338,2.3,2.3,51,0.00,CLR,,0.00,0.0,WeatherDisplay:10.37,2013-08-01 00:38:00,
2013-07-31 19:43:00,74.3,55.5,29.88,SW,225,1.6,0.0,52,0.00,CLR,,0.00,0.0,WeatherDisplay:10.37,2013-08-01 00:43:00,
2013-07-31 19:49:00,74.1,55.4,29.88,SSW,202,2.3,2.3,52,0.00,CLR,,0.00,0.0,WeatherDisplay:10.37,2013-08-01 00:49:00,
2013-07-31 19:54:00,73.9,55.7,29.88,WSW,248,2.4,2.4,53,0.00,CLR,,0.00,0.0,WeatherDisplay:10.37,2013-08-01 00:54:00,
2013-07-31 19:59:00,73.6,55.4,29.88,NW,315,2.3,2.3,53,0.00,CLR,,0.00,0.0,WeatherDisplay:10.37,2013-08-01 00:59:00,
2013-07-31 20:04:00,73.4,55.7,29.88,SW,225,1.1,0.0,54,0.00,CLR,,0.00,0.0,WeatherDisplay:10.37,2013-08-01 01:04:00,
2013-07-31 20:09:00,73.2,56.1,29.88,NNW,338,0.0,0.0,55,0.00,CLR,,0.00,0.0,WeatherDisplay:10.37,2013-08-01 01:09:00,
2013-07-31 20:14:00,72.9,55.7,29.91,WSW,248,1.4,1.4,55,0.00,CLR,,0.00,0.0,WeatherDisplay:10.37,2013-08-01 01:14:00,
2013-07-31 20:19:00,72.5,55.4,29.91,SSW,202,2.3,2.3,55,0.00,CLR,,0.00,0.0,WeatherDisplay:10.37,2013-08-01 01:19:00,
2013-07-31 20:25:00,72.3,55.2,29.91,SSW,202,0.0,0.0,55,0.00,CLR,,0.00,0.0,WeatherDisplay:10.37,2013-08-01 01:25:00,
2013-07-31 20:30:00,72.0,54.9,29.88,WSW,248,2.3,2.3,55,0.00,CLR,,0.00,0.0,WeatherDisplay:10.37,2013-08-01 01:30:00,
2013-07-31 20:35:00,71.6,54.6,29.88,South,180,2.3,2.3,55,0.00,CLR,,0.00,0.0,WeatherDisplay:10.37,2013-08-01 01:35:00,
2013-07-31 20:40:00,71.4,54.9,29.88,SSW,202,1.1,0.0,56,0.00,CLR,,0.00,0.0,WeatherDisplay:10.37,2013-08-01 01:40:00,
2013-07-31 20:45:00,71.1,54.6,29.91,South,180,1.1,0.0,56,0.00,CLR,,0.00,0.0,WeatherDisplay:10.37,2013-08-01 01:45:00,
2013-07-31 20:51:00,70.7,54.2,29.91,SSE,158,1.1,0.0,56,0.00,CLR,,0.00,0.0,WeatherDisplay:10.37,2013-08-01 01:51:00,
2013-07-31 20:56:00,70.5,54.5,29.91,SSE,158,1.1,1.1,57,0.00,CLR,,0.00,0.0,WeatherDisplay:10.37,2013-08-01 01:56:00,
2013-07-31 21:01:00,70.2,54.2,29.91,SW,225,1.1,1.1,57,0.00,CLR,,0.00,0.0,WeatherDisplay:10.37,2013-08-01 02:01:00,
2013-07-31 21:06:00,69.8,53.9,29.91,SSW,202,2.3,2.3,57,0.00,CLR,,0.00,0.0,WeatherDisplay:10.37,2013-08-01 02:06:00,
2013-07-31 21:11:00,69.6,54.2,29.91,SW,225,2.3,2.3,58,0.00,CLR,,0.00,0.0,WeatherDisplay:10.37,2013-08-01 02:11:00,
2013-07-31 21:16:00,69.3,53.8,29.91,SSW,202,2.3,2.3,58,0.00,CLR,,0.00,0.0,WeatherDisplay:10.37,2013-08-01 02:16:00,
2013-07-31 21:21:00,69.1,54.1,29.91,SSW,202,0.0,0.0,59,0.00,CLR,,0.00,0.0,WeatherDisplay:10.37,2013-08-01 02:21:00,
2013-07-31 21:27:00,68.7,53.8,29.91,SSW,202,0.0,0.0,59,0.00,CLR,,0.00,0.0,WeatherDisplay:10.37,2013-08-01 02:27:00,
2013-07-31 21:32:00,68.4,53.5,29.91,SSW,202,1.1,0.0,59,0.00,CLR,,0.00,0.0,WeatherDisplay:10.37,2013-08-01 02:32:00,
2013-07-31 21:37:00,68.2,53.3,29.91,NNE,22,1.1,0.0,59,0.00,CLR,,0.00,0.0,WeatherDisplay:10.37,2013-08-01 02:37:00,
2013-07-31 21:42:00,67.8,53.0,29.91,NNW,338,0.0,0.0,59,0.00,CLR,,0.00,0.0,WeatherDisplay:10.37,2013-08-01 02:42:00,
2013-07-31 21:47:00,67.6,52.8,29.91,NNW,338,0.0,0.0,59,0.00,CLR,,0.00,0.0,WeatherDisplay:10.37,2013-08-01 02:47:00,
2013-07-31 21:52:00,67.5,53.1,29.91,SE,135,1.4,0.0,60,0.00,CLR,,0.00,0.0,WeatherDisplay:10.37,2013-08-01 02:52:00,
2013-07-31 21:58:00,67.1,52.7,29.91,SE,135,0.0,0.0,60,0.00,CLR,,0.00,0.0,WeatherDisplay:10.37,2013-08-01 02:58:00,
2013-07-31 22:03:00,66.9,52.6,29.91,West,270,1.6,0.0,60,0.00,CLR,,0.00,0.0,WeatherDisplay:10.37,2013-08-01 03:03:00,
2013-07-31 22:08:00,66.7,52.4,29.91,SSW,202,0.0,0.0,60,0.00,CLR,,0.00,0.0,WeatherDisplay:10.37,2013-08-01 03:08:00,
2013-07-31 22:13:00,66.4,52.1,29.91,ESE,112,0.0,0.0,60,0.00,CLR,,0.00,0.0,WeatherDisplay:10.37,2013-08-01 03:13:00,
2013-07-31 22:18:00,66.2,52.3,29.91,ESE,112,1.1,0.0,61,0.00,CLR,,0.00,0.0,WeatherDisplay:10.37,2013-08-01 03:18:00,
2013-07-31 22:23:00,66.0,52.2,29.91,ESE,112,0.0,0.0,61,0.00,CLR,,0.00,0.0,WeatherDisplay:10.37,2013-08-01 03:23:00,
2013-07-31 22:28:00,65.8,52.5,29.91,ESE,112,0.0,0.0,62,0.00,CLR,,0.00,0.0,WeatherDisplay:10.37,2013-08-01 03:28:00,
2013-07-31 22:33:00,65.7,52.3,29.91,ESE,112,0.0,0.0,62,0.00,CLR,,0.00,0.0,WeatherDisplay:10.37,2013-08-01 03:33:00,
2013-07-31 22:38:00,65.3,51.9,29.91,ESE,112,0.0,0.0,62,0.00,CLR,,0.00,0.0,WeatherDisplay:10.37,2013-08-01 03:38:00,
2013-07-31 22:44:00,65.1,52.2,29.91,ESE,112,0.0,0.0,63,0.00,CLR,,0.00,0.0,WeatherDisplay:10.37,2013-08-01 03:44:00,
2013-07-31 22:49:00,64.8,51.9,29.91,ESE,112,0.0,0.0,63,0.00,CLR,,0.00,0.0,WeatherDisplay:10.37,2013-08-01 03:49:00,
2013-07-31 22:54:00,64.6,51.7,29.91,ESE,112,0.0,0.0,63,0.00,CLR,,0.00,0.0,WeatherDisplay:10.37,2013-08-01 03:54:00,
2013-07-31 22:59:00,64.2,51.8,29.91,ESE,112,0.0,0.0,64,0.00,CLR,,0.00,0.0,WeatherDisplay:10.37,2013-08-01 03:59:00,
2013-07-31 23:01:00,64.2,51.8,29.91,East,90,0.0,0.0,64,0.00,CLR,,0.00,0.0,WeatherDisplay:10.37,2013-08-01 04:01:00,
2013-07-31 23:02:00,64.2,51.8,29.91,East,90,0.0,0.0,64,0.00,CLR,,0.00,0.0,WeatherDisplay:10.37,2013-08-01 04:02:00,
2013-07-31 23:07:00,63.9,51.9,29.91,East,90,0.0,0.0,65,0.00,CLR,,0.00,0.0,WeatherDisplay:10.37,2013-08-01 04:07:00,
2013-07-31 23:12:00,63.5,51.9,29.91,East,90,0.0,0.0,66,0.00,CLR,,0.00,0.0,WeatherDisplay:10.37,2013-08-01 04:12:00,
2013-07-31 23:18:00,63.3,51.8,29.91,East,90,0.0,0.0,66,0.00,CLR,,0.00,0.0,WeatherDisplay:10.37,2013-08-01 04:18:00,
2013-07-31 23:23:00,63.1,52.0,29.91,East,90,0.0,0.0,67,0.00,CLR,,0.00,0.0,WeatherDisplay:10.37,2013-08-01 04:23:00,
2013-07-31 23:28:00,63.0,51.8,29.91,East,90,1.1,0.0,67,0.00,CLR,,0.00,0.0,WeatherDisplay:10.37,2013-08-01 04:28:00,
2013-07-31 23:33:00,62.6,51.9,29.91,East,90,0.0,0.0,68,0.00,CLR,,0.00,0.0,WeatherDisplay:10.37,2013-08-01 04:33:00,
2013-07-31 23:38:00,62.4,52.1,29.91,East,90,0.0,0.0,69,0.00,CLR,,0.00,0.0,WeatherDisplay:10.37,2013-08-01 04:38:00,
2013-07-31 23:44:00,62.2,51.9,29.91,East,90,0.0,0.0,69,0.00,CLR,,0.00,0.0,WeatherDisplay:10.37,2013-08-01 04:44:00,
2013-07-31 23:49:00,62.1,51.8,29.91,East,90,0.0,0.0,69,0.00,CLR,,0.00,0.0,WeatherDisplay:10.37,2013-08-01 04:49:00,
2013-07-31 23:54:00,61.9,52.0,29.91,East,90,0.0,0.0,70,0.00,CLR,,0.00,0.0,WeatherDisplay:10.37,2013-08-01 04:54:00,
2013-07-31 23:59:00,61.7,51.8,29.91,East,90,0.0,0.0,70,0.00,CLR,,0.00,0.0,WeatherDisplay:10.37,2013-08-01 04:59:00,